Probability
0 0 0 0 0 0 0 0 0 0 0 0 0 0 0 0 0 0 0 0 0 0 0 0 0 0 0 0 0 0 0 0 0 0 0 0 0 0 0 0 0 0 0 0
0 0 0 0 0 0 0 0 0 0 0 0 0 0 0 0 0 0 0 0 0 0 0 0 0 0 0 0 0 0 0 0 0 0 0 0 0 0 0 0 0 0 0 0
0 0 0 0 0 0 0 0 0 0 0 0 0 0 0 0 0 0 0 0 0 0 0 0 0 0 0 0 0 0 0 0 0 0 0 0 0 0 0 0 0 0 0 0
0 0 0 0 0 0 0 0 0 0 0 0 0 0 0 0 0 0 0 0 0 0 0 0 0 0 0 0 0 0 0 0 0 0 0 0 0 0 0 0 0 0 0 0
0 0 0 0 0 0 0 0 0 0 0 0 0 0 0 0 0 0 0 0 0 0 0 0 0 0 0 0 0 0 0 0 0 0 0 0 0 0 0 0 0 0 0 0
0 0 0 0 0 0 0 0 0 0 0 0 0 0 0 0 0 0 0 0 0 0 0 0 0 0 0 0 0 0 0 0 0 0 0 0 0 0 0 0 0 0 0 0
0 0 0 0 0 0 0 0 0 0 0 0 0 0 0 0 0 0 0 0 0 0 0 0 0 0 0 0 0 0 0 0 0 0 0 0 0 0 0 0 0 0 0 0
0 0 0 0 0 0 0 0 0 0 0 0 0 0 0 0 0 0 0 0 0 0 0 0 0 0 0 0 0 0 0 0 0 0 0 0 0 0 0 0 0 0 0 0
0 0 0 0 0 0 0 0 0 0 0 0 0 0 0 0 0 0 0 0 0 0 0 0 0 0 0 0 0 0 0 0 0 0 0 0 0 0 0 0 0 0 0 0
0 0 0 0 0 0 0 0 0 0 0 0 0 0 0 0 0 0 0 0 0 0 0 0 0 0 0 0 0 0 0 0 0 0 0 0 0 0 0 0 0 0 0 0
0 0 0 0 0 0 0 0 0 0 0 0 0 0 0 0 0 0 0 0 0 0 0 0 0 0 0 0 0 0 0 0 0 0 0 0 0 0 0 0 0 0 0 0
0 0 0 0 0 0 0 0 0 0 0 0 0 0 0 0 0 0 0 0 0 0 0 0 0 0 0 0 0 0 0 0 0 0 0 0 0 0 0 0 0 0 0 0
0 0 0 0 0 0 0 0 0 0 0 0 0 0 0 0 0 0 0 0 0 0 0 0 0 0 0 0 0 0 0 0 0 0 0 0 0 0 0 0 0 0 0 0
0 0 0 0 0 0 0 0 0 0 0 0 0 0 0 0 0 0 0 0 0 0 0 0 0 0 0 0 0 0 0 0 0 0 0 0 0 0 0 0 0 0 0 0
0 0 0 0 0 0 0 0 0 0 0 0 0 0 0 0 0 0 0 0 0 0 0 0 0 0 0 0 0 0 0 0 0 0 0 0 0 0 0 0 0 0 0 0
0 0 0 0 0 0 0 0 0 0 0 0 0 0 0 0 0 0 0 0 0 0 0 0 0 0 0 0 0 0 0 0 0 0 0 0 0 0 0 0 0 0 0 0
0 0 0 0 0 0 0 0 0 0 0 0 0 0 0 0 0 0 0 0 0 0 0 0 0 0 0 0 0 0 0 0 0 0 0 0 0 0 0 0 0 0 0 0
0 0 0 0 0 0 0 0 0 0 0 0 0 0 0 0 0 0 0 0 0 0 0 0 0 0 0 0 0 0 0 0 0 0 0 0 0 0 0 0 0 0 0 0
0 0 0 0 0 0 0 0 0 0 0 0 0 0 0 0 0 0 0 0 0 0 0 0 0 0 0 0 0 0 0 0 0 0 0 0 0 0 0 0 0 0 0 0
0 0 0 0 0 0 0 0 0 0 0 0 0 0 0 0 0 0 0 0 0 0 0 0 0 0 0 0 0 0 0 0 0 0 0 0 0 0 0 0 0 0 0 0
0 0 0 0 0 0 0 0 0 0 0 0 0 0 0 0 0 0 0 0 0 0 0 0 0 0 0 0 0 0 0 0 0 0 0 0 0 0 0 0 0 0 0 0
0 0 0 0 0 0 0 0 0 0 0 0 0 0 0 0 0 0 0 0 0 0 0 0 0 0 0 0 0 0 0 0 0 0 0 0 0 0 0 0 0 0 0 0
0 0 0 0 0 0 0 0 0 0 0 0 0 0 0 0 0 0 0 0 0 0 0 0 0 0 0 0 0 0 0 0 0 0 0 0 0 0 0 0 0 0 0 0
0 0 0 0 0 0 0 0 0 0 0 0 0 0 0 0 0 0 0 0 0 0 0 0 0 0 0 0 0 0 0 0 0 0 0 0 0 0 0 0 0 0 0 0
0 0 0 0 0 0 0 0 0 0 0 0 0 0 0 0 0 0 0 0 0 0 0 0 0 0 0 0 0 0 0 0 0 0 0 0 0 0 0 0 0 0 0 0
0 0 0 0 0 0 0 0 0 0 0 0 0 0 0 0 0 0 0 0 0 0 0 0 0 0 0 0 0 0 0 0 0 0 0 0 0 0 0 0 0 0 0 0
0 0 0 0 0 0 0 0 0 0 0 0 0 0 0 0 0 0 0 0 0 0 0 0 0 0 0 0 0 0 0 0 0 0 0 0 0 0 0 0 0 0 0 0
Height
5820 5822 5823 5824 5826 5827 5828 5829 5830 5831 5831 5833 5833 5834 5835 5836 5837 5838 5839 5840 5841 5842 5843 5844 5844 5845 5845 5845 5845 5845 5845 5844 5844 5843 5842 5841 5840 5838 5836 5834 5832 5830 5828 5826
5818 5820 5821 5822 5824 5825 5826 5827 5828 5829 5830 5831 5831 5832 5833 5834 5836 5837 5837 5838 5839 5840 5840 5841 5841 5842 5842 5842 5842 5842 5842 5841 5841 5840 5839 5838 5837 5835 5833 5831 5829 5827 5825 5823
5816 5817 5819 5821 5822 5823 5824 5825 5826 5827 5829 5829 5830 5831 5832 5833 5834 5834 5835 5836 5836 5837 5837 5838 5838 5838 5839 5839 5839 5839 5839 5838 5838 5837 5836 5835 5833 5832 5830 5828 5826 5824 5821 5819
5813 5815 5816 5821 5819 5820 5821 5822 5824 5824 5825 5827 5828 5828 5829 5830 5831 5832 5832 5833 5833 5834 5834 5834 5834 5835 5835 5835 5835 5835 5835 5834 5834 5833 5832 5830 5829 5827 5826 5824 5822 5819 5817 5814
5809 5810 5813 5815 5816 5817 5818 5819 5820 5821 5822 5823 5824 5825 5826 5827 5828 5828 5829 5829 5830 5830 5830 5831 5831 5831 5831 5831 5831 5831 5830 5830 5829 5828 5827 5826 5824 5823 5821 5819 5817 5814 5812 5809
5805 5806 5809 5813 5813 5813 5815 5816 5817 5818 5819 5820 5821 5822 5823 5823 5824 5824 5825 5825 5826 5826 5826 5826 5827 5827 5827 5826 5826 5826 5825 5824 5824 5823 5822 5820 5819 5817 5815 5813 5811 5809 5806 5804
5800 5802 5804 5808 5808 5809 5812 5814 5813 5814 5815 5816 5817 5819 5819 5819 5820 5820 5821 5821 5821 5821 5822 5822 5822 5822 5822 5821 5821 5820 5819 5818 5818 5817 5816 5814 5813 5811 5809 5807 5805 5803 5800 5798
5795 5797 5802 5802 5803 5805 5807 5807 5808 5809 5810 5812 5813 5813 5814 5815 5815 5816 5816 5816 5816 5817 5817 5817 5817 5817 5816 5816 5815 5814 5814 5813 5811 5810 5809 5807 5806 5804 5802 5800 5798 5796 5793 5790
5791 5794 5796 5797 5798 5800 5801 5802 5803 5804 5806 5807 5808 5809 5809 5810 5810 5811 5811 5811 5811 5811 5811 5811 5811 5811 5810 5810 5809 5808 5807 5806 5805 5803 5802 5800 5798 5796 5794 5792 5790 5787 5785 5782
5785 5787 5789 5791 5792 5794 5795 5796 5797 5799 5800 5802 5802 5803 5804 5804 5805 5805 5805 5805 5805 5805 5805 5805 5805 5804 5804 5803 5802 5801 5800 5799 5797 5796 5794 5792 5790 5788 5786 5783 5781 5778 5776 5773
5778 5781 5782 5784 5786 5787 5789 5790 5792 5793 5794 5796 5797 5798 5798 5798 5799 5799 5799 5799 5799 5799 5798 5798 5798 5797 5796 5795 5794 5794 5792 5791 5789 5788 5786 5784 5781 5779 5776 5773 5770 5768 5766 5763
5772 5774 5775 5778 5779 5781 5782 5784 5785 5786 5787 5789 5790 5791 5791 5792 5792 5792 5792 5792 5791 5791 5791 5790 5790 5789 5788 5787 5786 5785 5784 5782 5780 5778 5776 5774 5772 5769 5766 5763 5760 5757 5755 5752
5763 5765 5767 5770 5771 5773 5775 5776 5777 5779 5780 5781 5782 5783 5784 5784 5784 5784 5784 5784 5783 5783 5782 5782 5781 5780 5779 5778 5777 5775 5774 5772 5770 5768 5766 5763 5761 5758 5756 5753 5749 5746 5743 5740
5754 5757 5759 5761 5763 5765 5766 5768 5769 5771 5772 5773 5774 5775 5775 5775 5776 5776 5775 5775 5774 5774 5773 5772 5771 5770 5769 5768 5767 5765 5763 5761 5759 5757 5755 5752 5749 5747 5744 5741 5738 5735 5731 5728
5746 5748 5750 5752 5754 5756 5757 5759 5761 5762 5763 5764 5765 5766 5766 5766 5766 5766 5766 5765 5765 5764 5763 5762 5761 5760 5759 5757 5756 5754 5752 5750 5748 5745 5743 5740 5737 5734 5731 5728 5725 5722 5719 5715
5736 5738 5740 5742 5744 5746 5748 5750 5751 5753 5754 5755 5755 5756 5756 5756 5756 5756 5756 5755 5754 5754 5753 5752 5750 5749 5747 5746 5744 5742 5740 5738 5735 5732 5730 5727 5724 5721 5717 5714 5711 5708 5705 5701
5726 5728 5730 5732 5735 5736 5738 5740 5741 5742 5744 5745 5745 5746 5746 5746 5746 5746 5745 5744 5744 5743 5742 5740 5739 5737 5736 5734 5732 5730 5727 5725 5722 5719 5716 5713 5710 5707 5703 5700 5697 5693 5690 5687
5716 5718 5720 5722 5724 5726 5728 5729 5731 5732 5733 5734 5735 5735 5735 5735 5735 5735 5734 5733 5732 5731 5730 5728 5727 5725 5723 5721 5719 5717 5714 5711 5708 5705 5702 5699 5696 5693 5689 5686 5682 5679 5676 5673
5705 5708 5710 5712 5714 5716 5717 5719 5720 5721 5722 5723 5723 5724 5724 5724 5723 5723 5722 5722 5721 5720 5718 5716 5715 5713 5711 5708 5706 5703 5700 5697 5694 5691 5688 5685 5681 5678 5674 5671 5667 5664 5661 5658
5694 5697 5699 5701 5703 5705 5706 5707 5708 5709 5710 5711 5711 5712 5712 5712 5712 5711 5710 5709 5708 5707 5705 5703 5702 5700 5697 5695 5692 5689 5686 5683 5680 5677 5674 5670 5667 5663 5659 5656 5652 5649 5646 5642
5683 5686 5688 5690 5691 5693 5694 5695 5696 5697 5698 5698 5699 5699 5699 5699 5699 5698 5697 5697 5695 5693 5692 5690 5688 5686 5684 5681 5679 5676 5673 5669 5666 5662 5659 5655 5652 5648 5644 5641 5637 5634 5630 5627
5672 5674 5676 5678 5679 5681 5682 5683 5684 5685 5685 5686 5686 5686 5686 5686 5686 5685 5684 5683 5682 5680 5678 5677 5674 5672 5670 5667 5664 5661 5658 5655 5651 5648 5644 5640 5637 5633 5629 5626 5622 5618 5614 5611
5660 5662 5664 5665 5667 5668 5669 5670 5671 5672 5672 5673 5673 5673 5673 5672 5672 5671 5671 5669 5667 5666 5664 5662 5660 5657 5655 5652 5649 5646 5643 5640 5636 5633 5629 5625 5622 5618 5614 5610 5606 5602 5598 5595
5648 5649 5651 5652 5654 5655 5656 5657 5658 5658 5659 5659 5659 5659 5658 5658 5658 5657 5656 5654 5653 5651 5649 5647 5645 5642 5639 5637 5634 5631 5628 5625 5621 5618 5614 5610 5606 5602 5598 5594 5590 5586 5582 5579
5635 5637 5638 5639 5641 5642 5643 5643 5644 5644 5645 5645 5645 5645 5644 5644 5643 5642 5641 5640 5638 5636 5634 5632 5629 5627 5624 5621 5619 5616 5613 5609 5606 5602 5599 5595 5591 5587 5582 5578 5574 5570 5566 5563
5623 5624 5625 5626 5627 5628 5628 5629 5630 5630 5630 5631 5631 5630 5630 5629 5628 5627 5626 5624 5622 5620 5618 5616 5614 5611 5609 5606 5603 5600 5597 5594 5590 5587 5583 5579 5575 5571 5566 5562 5558 5554 5551 5547
5610 5611 5612 5613 5614 5614 5615 5615 5615 5616 5616 5616 5616 5615 5615 5614 5613 5611 5610 5609 5607 5605 5603 5601 5599 5596 5594 5591 5588 5585 5582 5578 5575 5571 5567 5563 5559 5555 5551 5547 5543 5539 5536 5533
Wind_Speed
11 11 11 11 10 9 8 7 7 6 7 8 8 8 9 10 9 9 9 10 10 9 9 10 10 10 10 9 9 10 10 10 10 10 11 12 12 13 14 15 15 16 17 17
12 12 12 11 10 10 9 8 7 7 7 8 8 8 8 9 8 8 9 10 10 10 10 11 11 11 11 10 10 10 10 11 11 12 12 13 14 14 15 16 16 17 18 18
13 13 13 12 11 11 10 9 9 9 9 9 8 8 8 8 9 9 9 9 10 10 11 11 12 12 12 11 11 11 11 12 13 13 14 14 15 16 16 17 17 18 19 20
15 15 14 12 12 12 12 11 10 10 10 10 10 10 10 10 10 10 11 11 11 12 12 12 12 13 13 13 13 13 13 14 14 15 16 16 17 17 18 18 19 20 20 21
17 16 14 13 13 13 13 12 12 11 11 12 12 13 12 12 12 12 13 13 13 13 14 14 14 14 15 15 15 15 16 16 16 17 18 18 18 19 19 20 20 21 22 22
18 17 15 14 14 14 14 12 12 13 13 14 14 14 14 14 14 14 14 14 14 14 15 15 15 16 16 17 17 18 18 19 19 19 19 20 21 21 22 22 23 23 23 23
19 18 17 16 16 16 15 13 15 15 15 15 15 15 16 16 16 15 15 15 16 16 16 16 17 17 18 18 19 20 20 21 21 22 22 22 23 23 24 24 24 25 25 25
21 20 17 17 18 18 17 17 17 17 16 16 16 17 17 17 17 17 17 17 17 17 18 18 18 19 19 20 21 21 21 22 23 24 24 25 25 26 26 27 27 27 27 28
22 21 20 20 19 19 19 19 19 19 19 18 18 19 19 19 19 19 19 19 19 19 19 20 20 21 21 22 22 23 23 24 25 25 26 27 27 28 29 29 30 30 30 30
24 23 23 22 21 21 21 21 21 21 21 20 20 20 20 20 21 21 21 22 22 22 22 22 23 23 23 24 25 25 25 26 27 27 28 28 29 30 31 32 32 33 33 32
27 25 25 24 24 24 23 23 23 23 23 22 22 22 22 22 22 22 23 24 24 24 24 25 25 26 26 26 27 27 28 28 29 29 30 31 32 32 33 34 34 35 35 36
28 28 27 26 26 25 25 24 24 25 25 24 24 25 24 24 25 25 25 25 26 27 27 27 28 28 29 29 29 30 30 31 31 32 32 33 34 35 35 36 37 38 38 39
30 30 30 29 28 27 27 27 27 27 27 27 27 27 27 27 27 27 27 28 28 29 29 30 30 30 31 31 32 33 33 33 34 35 35 36 37 38 38 39 40 41 41 41
30 31 31 31 31 31 30 30 29 29 29 29 29 29 29 29 30 30 30 30 30 31 31 31 32 33 34 34 35 35 36 36 37 38 39 40 40 40 41 41 42 43 43 43
31 31 31 31 32 32 32 31 31 31 31 31 32 32 31 31 31 31 32 32 32 33 33 34 35 35 36 37 37 38 38 39 40 41 41 42 42 43 43 44 44 44 44 44
33 33 32 32 32 32 32 32 32 32 32 32 32 32 32 33 33 34 34 34 34 35 36 36 37 38 38 39 39 39 40 41 42 43 43 44 44 45 45 45 46 46 45 45
35 34 34 33 33 33 33 33 32 33 33 33 33 34 34 35 35 35 35 36 36 37 37 38 39 40 40 41 41 41 42 43 44 44 45 45 46 46 46 47 47 46 45 45
35 35 35 35 34 34 34 34 35 35 35 35 36 36 36 36 36 36 37 37 38 39 39 40 40 41 42 42 43 43 44 45 45 46 46 47 47 48 48 48 47 47 46 46
36 36 36 36 36 36 36 36 36 37 37 37 38 38 38 38 38 38 39 40 40 41 41 42 42 42 43 43 44 45 45 46 46 47 48 48 48 49 49 49 48 48 47 47
36 37 37 37 37 38 38 38 38 38 39 39 39 40 40 40 40 40 41 41 41 42 43 43 43 44 44 45 45 45 46 47 47 48 49 49 49 49 49 49 48 48 48 48
37 38 38 38 39 39 40 40 40 40 40 40 40 41 40 40 41 41 41 42 42 43 43 44 45 45 45 46 46 46 47 48 48 48 49 49 49 49 48 48 49 49 49 49
38 38 38 39 39 40 40 41 41 41 42 42 42 42 42 42 42 42 42 43 43 44 45 45 46 46 47 47 47 48 48 49 49 49 49 49 49 49 49 49 49 50 50 50
39 40 40 40 40 40 41 41 42 42 43 43 43 43 43 44 44 44 44 44 45 45 46 46 47 48 48 49 49 49 49 49 49 49 49 49 49 49 50 50 50 51 51 50
38 39 40 41 42 42 42 42 42 43 44 44 44 45 45 45 45 45 45 46 46 46 47 47 48 49 50 50 50 50 49 49 49 49 49 50 50 51 51 51 51 51 51 50
39 40 40 41 42 43 43 43 44 44 44 45 46 46 46 47 46 46 47 47 47 48 48 48 49 49 49 49 49 49 49 49 50 50 50 51 51 51 51 51 51 51 49 48
40 40 40 41 41 42 43 44 44 45 46 46 46 46 47 47 48 48 48 48 48 48 48 48 48 48 49 49 49 49 49 50 50 51 51 52 52 52 51 50 50 49 48 46
41 41 40 40 41 42 42 43 44 44 45 45 46 46 47 47 47 47 47 48 48 48 48 48 48 48 48 49 49 49 50 50 51 51 51 52 52 51 50 49 49 48 46 45
Wind_Direction
226 227 228 228 228 228 227 228 221 210 210 214 221 225 226 224 224 226 229 234 238 243 249 253 255 259 264 269 276 281 285 291 295 301 305 309 313 316 318 320 322 323 324 326
233 234 233 231 233 232 232 233 229 222 218 224 227 226 224 224 228 233 238 239 243 248 253 256 258 261 265 271 276 280 283 288 294 299 303 306 309 313 316 318 319 320 321 323
234 237 237 233 235 238 237 235 235 229 226 229 224 227 230 233 236 240 244 247 250 254 258 262 264 265 267 272 277 280 284 289 294 298 301 304 307 310 313 314 316 317 317 318
236 238 240 238 240 242 241 242 241 234 231 231 234 238 238 240 243 246 251 255 258 262 264 264 265 266 269 272 275 280 286 290 294 298 300 303 304 307 309 311 311 312 314 315
239 240 241 240 242 242 243 245 245 238 234 236 239 240 242 245 248 252 256 258 261 264 265 266 267 269 272 275 278 281 284 287 292 295 297 299 302 304 306 308 309 311 311 311
242 244 243 239 240 242 244 245 246 242 240 243 244 244 247 248 250 255 259 263 265 266 267 268 268 270 273 276 280 283 285 287 289 292 294 296 299 301 303 305 307 308 309 309
244 246 243 241 242 245 247 246 245 245 247 249 250 250 251 253 255 259 263 265 267 268 268 269 270 272 275 277 279 282 284 287 289 290 292 294 296 298 300 302 304 306 306 306
245 246 243 243 245 246 247 246 247 248 249 251 251 251 253 255 257 259 263 266 268 269 269 270 272 275 277 279 280 282 284 287 289 291 292 292 294 296 298 299 301 302 303 303
246 247 244 244 245 246 248 249 250 251 252 252 253 253 254 255 258 261 264 267 269 269 271 273 275 277 277 279 280 282 284 287 289 291 292 293 294 294 296 298 299 300 300 301
245 246 245 245 245 246 248 250 251 252 253 254 256 256 257 259 261 264 267 269 271 271 272 274 275 277 279 280 280 282 284 287 289 290 291 293 294 294 295 296 297 298 298 299
246 246 246 246 247 247 248 251 253 253 254 256 257 259 260 262 264 266 268 269 270 271 272 274 277 279 279 280 281 283 285 287 288 289 290 292 293 294 295 296 296 297 297 298
247 246 246 247 249 250 251 253 254 254 255 256 258 259 261 263 265 267 269 269 270 271 273 275 277 279 280 281 283 284 286 287 289 290 291 292 293 294 295 295 295 296 296 296
248 247 247 248 249 251 252 252 253 253 254 256 259 261 262 264 265 267 269 270 271 272 274 276 278 279 280 282 283 285 287 287 289 290 290 292 293 294 294 294 294 295 295 295
250 250 250 250 251 251 251 252 253 254 255 257 259 261 263 265 267 268 270 272 273 274 276 277 279 280 281 282 284 285 286 287 288 289 290 291 293 293 293 293 294 294 294 294
252 252 252 251 251 252 252 253 254 255 256 258 260 262 263 265 268 270 272 273 274 276 277 279 280 281 281 282 284 285 285 286 287 289 290 291 292 293 293 293 294 294 293 293
251 252 252 252 252 252 254 256 257 257 258 259 260 262 264 266 269 272 272 273 275 277 278 279 280 281 282 283 284 285 286 287 288 289 290 291 292 292 293 293 294 294 294 293
251 252 253 253 253 254 254 256 257 257 258 260 261 263 265 267 270 271 272 274 275 277 279 280 281 282 283 284 285 286 287 288 289 290 290 290 291 292 293 293 293 294 294 293
252 252 253 255 255 255 256 257 258 259 259 260 262 264 267 268 270 271 272 274 275 277 279 280 281 282 283 284 285 287 288 289 290 290 290 291 291 292 292 293 293 293 293 293
252 253 254 255 256 257 258 259 260 261 261 262 264 266 267 269 270 271 272 274 276 277 279 281 282 283 284 285 286 288 289 289 289 290 290 291 292 292 293 293 293 292 292 292
252 253 253 254 256 257 259 261 262 263 263 264 265 267 269 269 270 271 273 275 276 278 280 281 283 284 285 287 288 289 289 290 291 291 291 292 293 293 293 293 293 292 292 292
254 254 254 255 256 258 259 260 262 263 264 266 267 268 269 270 271 273 274 276 277 279 280 282 283 284 286 287 288 289 290 291 291 292 292 293 293 293 293 293 293 293 292 292
254 255 256 256 257 258 259 260 262 263 265 266 268 269 270 271 273 274 276 277 279 280 281 282 283 285 286 287 288 289 289 290 291 292 292 293 293 293 293 293 293 293 293 292
257 257 258 258 259 260 260 262 263 264 266 267 269 270 271 272 273 275 276 278 279 281 282 283 283 284 285 286 287 288 289 290 290 291 292 293 293 293 293 293 293 293 293 292
258 258 259 260 261 261 262 262 263 265 266 268 269 270 271 272 273 275 277 278 280 281 283 284 284 285 285 286 287 287 288 289 290 290 292 293 294 294 294 294 293 293 293 292
259 260 261 261 261 262 263 264 264 265 266 268 269 270 271 272 273 275 277 279 280 282 283 283 284 285 285 286 287 288 288 289 290 291 292 293 293 294 294 294 294 294 293 292
260 261 262 262 262 263 263 264 265 266 267 268 269 270 271 272 274 276 277 278 279 281 282 283 283 284 285 286 287 288 289 290 290 291 292 293 294 294 294 294 294 293 292 292
260 261 262 263 263 264 264 265 267 267 268 269 270 271 272 273 275 276 277 278 279 280 281 282 283 284 285 286 287 288 289 290 291 291 293 293 294 294 294 294 293 293 291 290